Hourly Data Report for October 01, 2017

All times are specified in Local Standard Time (LST). Add 1 hour to adjust for Daylight Saving Time where and when it is observed.

WHITE ROCK CAMPBELL SCIENTIFIC
BRITISH COLUMBIA

49°01'05.000" N
122°47'02.000" W
13.00 m
1108910
71785
WWK

Download Data

Hourly Data (October 2017)
Hourly Data Report for October 1, 2017
Temp Definition
°C
Dew Point Temp Definition
°C
Rel Hum Definition
%
Wind Dir Definition
10's deg

Wind Spd Definition
km/h
Visibility Definition
km
Stn Press Definition
kPa
Hmdx Definition


Wind Chill Definition


Weather Definition


TIME
00:00 11.3 10.3 94   0   101.72     LegendNANA
01:00 11.2 10.4 95   0   101.74     LegendNANA
02:00 11.0 10.2 95 0 1   101.73     LegendNANA
03:00 10.7 9.9 95   0   101.73     LegendNANA
04:00 10.8 10.2 96 5 3   101.77     LegendNANA
05:00 10.7 10.1 96 3 2   101.77     LegendNANA
06:00 10.4 9.7 95 20 2   101.79     LegendNANA
07:00 10.4 9.8 96 35 2   101.85     LegendNANA
08:00 11.2 10.2 94 4 2   101.88     LegendNANA
09:00 12.2 10.3 88 27 2   101.88     LegendNANA
10:00 12.4 10.1 86 25 2   101.90     LegendNANA
11:00 13.8 9.5 75 22 5   101.90     LegendNANA
12:00 14.9 10.4 74 24 6   101.91     LegendNANA
13:00 15.4 9.9 70 22 5   101.90     LegendNANA
14:00 16.8 9.1 61 27 8   101.86     LegendNANA
15:00 16.5 8.1 58 26 9   101.86     LegendNANA
16:00 16.3 8.0 58 26 3   101.86     LegendNANA
17:00 15.1 7.6 61 29 2   101.88     LegendNANA
18:00 13.5 8.1 70   0   101.86     LegendNANA
19:00 11.7 8.3 80 35 1   101.90     LegendNANA
20:00 10.4 8.3 87   0   101.91     LegendNANA
21:00 9.3 7.7 90 0 1   101.92     LegendNANA
22:00 8.9 7.6 92   0   101.91     LegendNANA
23:00 8.9 7.6 91 4 4   101.93     LegendNANA

Notes on Data Quality.

Legend

  • E = Estimated
  • M = Missing
  • NA = Not Available
  • ‡ = Partner data that is not subject to review by the National Climate Archives
Date modified: